Terminal Aerodrome Forecast
Issued by NWS Mobile, AL

Home | Current Version | Previous Version | Text Only | Print | Product List | Glossary On
Versions: 1 2 3 4 5 6 7 8 9 10 11 12 13 14 15 16 17 18 19 20 21 22 23 24 25 26 27 28 29
000
FTUS44 KMOB 291700
TAFMOB
TAF
KMOB 291720Z 2918/3018 14007KT P6SM VCTS SCT030CB BKN120
      TEMPO 2919/2923 3SM TSRA BKN025CB
     FM300100 14006KT P6SM VCTS SCT030CB=

USA.gov is the U.S. government's official web portal to all federal, state and local government web resources and services.